Location: Homewood
(41.1836°S, 175.9581°E)
Time: 10:58:54
(UTC+00:00)

Cosmos 1833 Rocket - Pass Details

Date: 18 April 2024
Orbit: 833 x 838 km, 71.0° (Epoch: 24 May)

Event Time Altitude Azimuth Distance (km) Brightness Sun altitude
Exits shadow 17:58:09 11° 239° (WSW) 2,442 4.5 -10.6°
Maximum altitude 18:01:41 18° 279° (W) 1,966 4.0 -9.9°
Drops below altitude 10° 18:05:20 10° 320° (NW) 2,453 4.8 -9.2°
Sets 18:08:31 0° 338° (NNW) 3,376 5.7 -8.6°
